Time,TemperatureF,DewpointF,PressureIn,WindDirection,WindDirectionDegrees,WindSpeedMPH,WindSpeedGustMPH,Humidity,HourlyPrecipIn,Conditions,Clouds,dailyrainin,SolarRadiationWatts/m^2,SoftwareType,DateUTC
2013-02-25 00:01:00,18.0,16.0,-100.00,ESE,112,17.0,20.0,91,-99.99,,,-99.99,0.600000,,2013-02-25 09:01:00,
2013-02-25 00:12:00,18.0,16.0,-100.00,ESE,112,17.0,20.0,91,-99.99,,,-99.99,0.600000,,2013-02-25 09:12:00,
2013-02-25 00:21:00,18.0,16.0,-100.00,ESE,112,17.0,20.0,91,-99.99,,,-99.99,0.600000,,2013-02-25 09:21:00,
2013-02-25 00:31:00,18.0,16.0,-100.00,ESE,112,17.0,20.0,91,-99.99,,,-99.99,0.600000,,2013-02-25 09:31:00,
2013-02-25 00:41:00,18.0,16.0,-100.00,ESE,112,17.0,20.0,91,-99.99,,,-99.99,0.600000,,2013-02-25 09:41:00,
2013-02-25 01:01:00,18.0,16.0,-100.00,ESE,108,18.0,22.0,91,0.00,,,-99.99,0.600000,,2013-02-25 10:01:00,
2013-02-25 01:11:00,18.0,16.0,-100.00,ESE,108,18.0,22.0,91,0.00,,,-99.99,0.600000,,2013-02-25 10:11:00,
2013-02-25 01:21:00,18.0,16.0,-100.00,ESE,108,18.0,22.0,91,0.00,,,-99.99,0.600000,,2013-02-25 10:21:00,
2013-02-25 01:31:00,18.0,16.0,-100.00,ESE,108,18.0,22.0,91,0.00,,,-99.99,0.600000,,2013-02-25 10:31:00,
2013-02-25 01:41:00,18.0,16.0,-100.00,ESE,108,18.0,22.0,91,0.00,,,-99.99,0.600000,,2013-02-25 10:41:00,
2013-02-25 02:01:00,18.0,16.0,-100.00,ESE,105,14.0,24.0,91,0.00,,,-99.99,0.700000,,2013-02-25 11:01:00,
2013-02-25 02:11:00,18.0,16.0,-100.00,ESE,105,14.0,24.0,91,0.00,,,-99.99,0.700000,,2013-02-25 11:11:00,
2013-02-25 02:21:00,18.0,16.0,-100.00,ESE,105,14.0,24.0,91,0.00,,,-99.99,0.700000,,2013-02-25 11:21:00,
2013-02-25 02:32:00,18.0,16.0,-100.00,ESE,105,14.0,24.0,91,0.00,,,-99.99,0.700000,,2013-02-25 11:32:00,
2013-02-25 02:41:00,18.0,16.0,-100.00,ESE,105,14.0,24.0,91,0.00,,,-99.99,0.700000,,2013-02-25 11:41:00,
2013-02-25 03:01:00,18.0,16.0,-100.00,ESE,119,18.0,25.0,91,0.00,,,-99.99,0.700000,,2013-02-25 12:01:00,
2013-02-25 03:11:00,18.0,16.0,-100.00,ESE,119,18.0,25.0,91,0.00,,,-99.99,0.700000,,2013-02-25 12:11:00,
2013-02-25 03:21:00,18.0,16.0,-100.00,ESE,119,18.0,25.0,91,0.00,,,-99.99,0.700000,,2013-02-25 12:21:00,
2013-02-25 03:32:00,18.0,16.0,-100.00,ESE,119,18.0,25.0,91,0.00,,,-99.99,0.700000,,2013-02-25 12:32:00,
2013-02-25 03:41:00,18.0,16.0,-100.00,ESE,119,18.0,25.0,91,0.00,,,-99.99,0.700000,,2013-02-25 12:41:00,
2013-02-25 04:02:00,19.0,17.0,-100.00,ESE,112,23.0,23.0,91,0.00,,,-99.99,0.700000,,2013-02-25 13:02:00,
2013-02-25 04:12:00,19.0,17.0,-100.00,ESE,112,23.0,23.0,91,0.00,,,-99.99,0.700000,,2013-02-25 13:12:00,
2013-02-25 04:22:00,19.0,17.0,-100.00,ESE,112,23.0,23.0,91,0.00,,,-99.99,0.700000,,2013-02-25 13:22:00,
2013-02-25 04:31:00,19.0,17.0,-100.00,ESE,112,23.0,23.0,91,0.00,,,-99.99,0.700000,,2013-02-25 13:31:00,
2013-02-25 04:41:00,19.0,17.0,-100.00,ESE,112,23.0,23.0,91,0.00,,,-99.99,0.700000,,2013-02-25 13:41:00,
2013-02-25 05:02:00,19.0,17.0,-100.00,ESE,115,24.0,35.0,91,0.00,,,-99.99,0.700000,,2013-02-25 14:02:00,
2013-02-25 05:16:00,19.0,17.0,-100.00,ESE,115,24.0,35.0,91,0.00,,,-99.99,0.700000,,2013-02-25 14:16:00,
2013-02-25 05:21:00,19.0,17.0,-100.00,ESE,115,24.0,35.0,91,0.00,,,-99.99,0.700000,,2013-02-25 14:21:00,
2013-02-25 05:31:00,19.0,17.0,-100.00,ESE,115,24.0,35.0,91,0.00,,,-99.99,0.700000,,2013-02-25 14:31:00,
2013-02-25 05:41:00,19.0,17.0,-100.00,ESE,115,24.0,35.0,91,0.00,,,-99.99,0.700000,,2013-02-25 14:41:00,
2013-02-25 06:02:00,19.0,17.0,-100.00,ESE,116,24.0,35.0,91,0.00,,,-99.99,0.700000,,2013-02-25 15:02:00,
2013-02-25 06:11:00,19.0,17.0,-100.00,ESE,116,24.0,35.0,91,0.00,,,-99.99,0.700000,,2013-02-25 15:11:00,
2013-02-25 06:21:00,19.0,17.0,-100.00,ESE,116,24.0,35.0,91,0.00,,,-99.99,0.700000,,2013-02-25 15:21:00,
2013-02-25 06:32:00,19.0,17.0,-100.00,ESE,116,24.0,35.0,91,0.00,,,-99.99,0.700000,,2013-02-25 15:32:00,
2013-02-25 06:41:00,19.0,17.0,-100.00,ESE,116,24.0,35.0,91,0.00,,,-99.99,0.700000,,2013-02-25 15:41:00,
2013-02-25 07:01:00,19.0,17.0,-100.00,ESE,115,19.0,32.0,92,0.00,,,-99.99,0.700000,,2013-02-25 16:01:00,
2013-02-25 07:11:00,19.0,17.0,-100.00,ESE,115,19.0,32.0,92,0.00,,,-99.99,0.700000,,2013-02-25 16:11:00,
2013-02-25 07:21:00,19.0,17.0,-100.00,ESE,115,19.0,32.0,92,0.00,,,-99.99,0.700000,,2013-02-25 16:21:00,
2013-02-25 07:31:00,19.0,17.0,-100.00,ESE,115,19.0,32.0,92,0.00,,,-99.99,0.700000,,2013-02-25 16:31:00,
2013-02-25 07:41:00,19.0,17.0,-100.00,ESE,115,19.0,32.0,92,0.00,,,-99.99,0.700000,,2013-02-25 16:41:00,
2013-02-25 08:01:00,18.0,16.0,-100.00,ESE,117,29.0,33.0,91,0.00,,,-99.99,0.700000,,2013-02-25 17:01:00,
2013-02-25 08:11:00,18.0,16.0,-100.00,ESE,117,29.0,33.0,91,0.00,,,-99.99,0.700000,,2013-02-25 17:11:00,
2013-02-25 08:21:00,18.0,16.0,-100.00,ESE,117,29.0,33.0,91,0.00,,,-99.99,0.700000,,2013-02-25 17:21:00,
2013-02-25 08:31:00,18.0,16.0,-100.00,ESE,117,29.0,33.0,91,0.00,,,-99.99,0.700000,,2013-02-25 17:31:00,
2013-02-25 08:41:00,18.0,16.0,-100.00,ESE,117,29.0,33.0,91,0.00,,,-99.99,0.700000,,2013-02-25 17:41:00,
2013-02-25 09:01:00,18.0,16.0,-100.00,ESE,114,27.0,36.0,91,0.00,,,-99.99,9.400000,,2013-02-25 18:01:00,
2013-02-25 09:12:00,18.0,16.0,-100.00,ESE,114,27.0,36.0,91,0.00,,,-99.99,9.400000,,2013-02-25 18:12:00,
2013-02-25 09:21:00,18.0,16.0,-100.00,ESE,114,27.0,36.0,91,0.00,,,-99.99,9.400000,,2013-02-25 18:21:00,
2013-02-25 09:32:00,18.0,16.0,-100.00,ESE,114,27.0,36.0,91,0.00,,,-99.99,9.400000,,2013-02-25 18:32:00,
2013-02-25 09:41:00,18.0,16.0,-100.00,ESE,114,27.0,36.0,91,0.00,,,-99.99,9.400000,,2013-02-25 18:41:00,
2013-02-25 10:01:00,18.0,16.0,-100.00,ESE,111,26.0,36.0,91,0.00,,,-99.99,35.099998,,2013-02-25 19:01:00,
2013-02-25 10:11:00,18.0,16.0,-100.00,ESE,111,26.0,36.0,91,0.00,,,-99.99,35.099998,,2013-02-25 19:11:00,
2013-02-25 10:21:00,18.0,16.0,-100.00,ESE,111,26.0,36.0,91,0.00,,,-99.99,35.099998,,2013-02-25 19:21:00,
2013-02-25 10:31:00,18.0,16.0,-100.00,ESE,111,26.0,36.0,91,0.00,,,-99.99,35.099998,,2013-02-25 19:31:00,
2013-02-25 10:41:00,18.0,16.0,-100.00,ESE,111,26.0,36.0,91,0.00,,,-99.99,35.099998,,2013-02-25 19:41:00,
2013-02-25 11:01:00,19.0,17.0,-100.00,ESE,114,28.0,38.0,91,0.00,,,-99.99,92.699997,,2013-02-25 20:01:00,
2013-02-25 11:11:00,19.0,17.0,-100.00,ESE,114,28.0,38.0,91,0.00,,,-99.99,92.699997,,2013-02-25 20:11:00,
2013-02-25 11:21:00,19.0,17.0,-100.00,ESE,114,28.0,38.0,91,0.00,,,-99.99,92.699997,,2013-02-25 20:21:00,
2013-02-25 11:31:00,19.0,17.0,-100.00,ESE,114,28.0,38.0,91,0.00,,,-99.99,92.699997,,2013-02-25 20:31:00,
2013-02-25 11:41:00,19.0,17.0,-100.00,ESE,114,28.0,38.0,91,0.00,,,-99.99,92.699997,,2013-02-25 20:41:00,
2013-02-25 12:01:00,19.0,17.0,-100.00,ESE,117,27.0,37.0,91,0.00,,,-99.99,145.100006,,2013-02-25 21:01:00,
2013-02-25 12:11:00,19.0,17.0,-100.00,ESE,117,27.0,37.0,91,0.00,,,-99.99,145.100006,,2013-02-25 21:11:00,
2013-02-25 12:21:00,19.0,17.0,-100.00,ESE,117,27.0,37.0,91,0.00,,,-99.99,145.100006,,2013-02-25 21:21:00,
2013-02-25 12:31:00,19.0,17.0,-100.00,ESE,117,27.0,37.0,91,0.00,,,-99.99,145.100006,,2013-02-25 21:31:00,
2013-02-25 12:41:00,19.0,17.0,-100.00,ESE,117,27.0,37.0,91,0.00,,,-99.99,145.100006,,2013-02-25 21:41:00,
2013-02-25 13:01:00,19.0,17.0,-100.00,ESE,115,26.0,37.0,91,0.00,,,-99.99,190.600006,,2013-02-25 22:01:00,
2013-02-25 13:11:00,19.0,17.0,-100.00,ESE,115,26.0,37.0,91,0.00,,,-99.99,190.600006,,2013-02-25 22:11:00,
2013-02-25 13:21:00,19.0,17.0,-100.00,ESE,115,26.0,37.0,91,0.00,,,-99.99,190.600006,,2013-02-25 22:21:00,
2013-02-25 13:31:00,19.0,17.0,-100.00,ESE,115,26.0,37.0,91,0.00,,,-99.99,190.600006,,2013-02-25 22:31:00,
2013-02-25 13:41:00,19.0,17.0,-100.00,ESE,115,26.0,37.0,91,0.00,,,-99.99,190.600006,,2013-02-25 22:41:00,
2013-02-25 14:01:00,19.0,17.0,-100.00,ESE,116,27.0,38.0,91,0.00,,,-99.99,212.300003,,2013-02-25 23:01:00,
2013-02-25 14:11:00,19.0,17.0,-100.00,ESE,116,27.0,38.0,91,0.00,,,-99.99,212.300003,,2013-02-25 23:11:00,
2013-02-25 14:22:00,19.0,17.0,-100.00,ESE,116,27.0,38.0,91,0.00,,,-99.99,212.300003,,2013-02-25 23:22:00,
2013-02-25 14:31:00,19.0,17.0,-100.00,ESE,116,27.0,38.0,91,0.00,,,-99.99,212.300003,,2013-02-25 23:31:00,
2013-02-25 14:41:00,19.0,17.0,-100.00,ESE,116,27.0,38.0,91,0.00,,,-99.99,212.300003,,2013-02-25 23:41:00,
2013-02-25 15:01:00,19.0,17.0,-100.00,ESE,114,25.0,38.0,91,0.00,,,-99.99,193.300003,,2013-02-26 00:01:00,
2013-02-25 15:11:00,19.0,17.0,-100.00,ESE,114,25.0,38.0,91,0.00,,,-99.99,193.300003,,2013-02-26 00:11:00,
2013-02-25 15:21:00,19.0,17.0,-100.00,ESE,114,25.0,38.0,91,0.00,,,-99.99,193.300003,,2013-02-26 00:21:00,
2013-02-25 15:32:00,19.0,17.0,-100.00,ESE,114,25.0,38.0,91,0.00,,,-99.99,193.300003,,2013-02-26 00:32:00,
2013-02-25 15:41:00,19.0,17.0,-100.00,ESE,114,25.0,38.0,91,0.00,,,-99.99,193.300003,,2013-02-26 00:41:00,
2013-02-25 16:02:00,19.0,17.0,-100.00,ESE,108,24.0,37.0,91,0.00,,,-99.99,146.199997,,2013-02-26 01:02:00,
2013-02-25 16:11:00,19.0,17.0,-100.00,ESE,108,24.0,37.0,91,0.00,,,-99.99,146.199997,,2013-02-26 01:11:00,
2013-02-25 16:21:00,19.0,17.0,-100.00,ESE,108,24.0,37.0,91,0.00,,,-99.99,146.199997,,2013-02-26 01:21:00,
2013-02-25 16:31:00,19.0,17.0,-100.00,ESE,108,24.0,37.0,91,0.00,,,-99.99,146.199997,,2013-02-26 01:31:00,
2013-02-25 16:41:00,19.0,17.0,-100.00,ESE,108,24.0,37.0,91,0.00,,,-99.99,146.199997,,2013-02-26 01:41:00,
2013-02-25 17:01:00,19.0,17.0,-100.00,ESE,105,24.0,34.0,91,0.00,,,-99.99,99.199997,,2013-02-26 02:01:00,
2013-02-25 17:11:00,19.0,17.0,-100.00,ESE,105,24.0,34.0,91,0.00,,,-99.99,99.199997,,2013-02-26 02:11:00,
2013-02-25 17:21:00,19.0,17.0,-100.00,ESE,105,24.0,34.0,91,0.00,,,-99.99,99.199997,,2013-02-26 02:21:00,
2013-02-25 17:31:00,19.0,17.0,-100.00,ESE,105,24.0,34.0,91,0.00,,,-99.99,99.199997,,2013-02-26 02:31:00,
2013-02-25 17:41:00,19.0,17.0,-100.00,ESE,105,24.0,34.0,91,0.00,,,-99.99,99.199997,,2013-02-26 02:41:00,
2013-02-25 18:01:00,19.0,17.0,-100.00,ESE,108,23.0,35.0,92,0.00,,,-99.99,43.200001,,2013-02-26 03:01:00,
2013-02-25 18:11:00,19.0,17.0,-100.00,ESE,108,23.0,35.0,92,0.00,,,-99.99,43.200001,,2013-02-26 03:11:00,
2013-02-25 18:21:00,19.0,17.0,-100.00,ESE,108,23.0,35.0,92,0.00,,,-99.99,43.200001,,2013-02-26 03:21:00,
2013-02-25 18:31:00,19.0,17.0,-100.00,ESE,108,23.0,35.0,92,0.00,,,-99.99,43.200001,,2013-02-26 03:31:00,
2013-02-25 18:41:00,19.0,17.0,-100.00,ESE,108,23.0,35.0,92,0.00,,,-99.99,43.200001,,2013-02-26 03:41:00,
2013-02-25 19:01:00,19.0,17.0,-100.00,ESE,106,23.0,33.0,92,0.00,,,-99.99,6.000000,,2013-02-26 04:01:00,
2013-02-25 19:11:00,19.0,17.0,-100.00,ESE,106,23.0,33.0,92,0.00,,,-99.99,6.000000,,2013-02-26 04:11:00,
2013-02-25 19:21:00,19.0,17.0,-100.00,ESE,106,23.0,33.0,92,0.00,,,-99.99,6.000000,,2013-02-26 04:21:00,
2013-02-25 19:31:00,19.0,17.0,-100.00,ESE,106,23.0,33.0,92,0.00,,,-99.99,6.000000,,2013-02-26 04:31:00,
2013-02-25 19:42:00,19.0,17.0,-100.00,ESE,106,23.0,33.0,92,0.00,,,-99.99,6.000000,,2013-02-26 04:42:00,
2013-02-25 20:01:00,20.0,18.0,-100.00,East,97,20.0,35.0,92,0.00,,,-99.99,0.700000,,2013-02-26 05:01:00,
2013-02-25 20:11:00,20.0,18.0,-100.00,East,97,20.0,35.0,92,0.00,,,-99.99,0.700000,,2013-02-26 05:11:00,
2013-02-25 20:21:00,20.0,18.0,-100.00,East,97,20.0,35.0,92,0.00,,,-99.99,0.700000,,2013-02-26 05:21:00,
2013-02-25 20:31:00,20.0,18.0,-100.00,East,97,20.0,35.0,92,0.00,,,-99.99,0.700000,,2013-02-26 05:31:00,
2013-02-25 20:42:00,20.0,18.0,-100.00,East,97,20.0,35.0,92,0.00,,,-99.99,0.700000,,2013-02-26 05:42:00,
2013-02-25 21:01:00,19.0,17.0,-100.00,East,98,20.0,30.0,92,0.00,,,-99.99,0.700000,,2013-02-26 06:01:00,
2013-02-25 21:11:00,19.0,17.0,-100.00,East,98,20.0,30.0,92,0.00,,,-99.99,0.700000,,2013-02-26 06:11:00,
2013-02-25 21:21:00,19.0,17.0,-100.00,East,98,20.0,30.0,92,0.00,,,-99.99,0.700000,,2013-02-26 06:21:00,
2013-02-25 21:31:00,19.0,17.0,-100.00,East,98,20.0,30.0,92,0.00,,,-99.99,0.700000,,2013-02-26 06:31:00,
2013-02-25 21:41:00,19.0,17.0,-100.00,East,98,20.0,30.0,92,0.00,,,-99.99,0.700000,,2013-02-26 06:41:00,
2013-02-25 22:01:00,19.0,17.0,-100.00,East,92,20.0,29.0,92,0.00,,,-99.99,0.700000,,2013-02-26 07:01:00,
2013-02-25 22:11:00,19.0,17.0,-100.00,East,92,20.0,29.0,92,0.00,,,-99.99,0.700000,,2013-02-26 07:11:00,
2013-02-25 22:22:00,19.0,17.0,-100.00,East,92,20.0,29.0,92,0.00,,,-99.99,0.700000,,2013-02-26 07:22:00,
2013-02-25 22:31:00,19.0,17.0,-100.00,East,92,20.0,29.0,92,0.00,,,-99.99,0.700000,,2013-02-26 07:31:00,
2013-02-25 22:41:00,19.0,17.0,-100.00,East,92,20.0,29.0,92,0.00,,,-99.99,0.700000,,2013-02-26 07:41:00,
2013-02-25 23:01:00,19.0,17.0,-100.00,East,87,16.0,29.0,92,0.00,,,-99.99,0.700000,,2013-02-26 08:01:00,
2013-02-25 23:11:00,19.0,17.0,-100.00,East,87,16.0,29.0,92,0.00,,,-99.99,0.700000,,2013-02-26 08:11:00,
2013-02-25 23:21:00,19.0,17.0,-100.00,East,87,16.0,29.0,92,0.00,,,-99.99,0.700000,,2013-02-26 08:21:00,
2013-02-25 23:31:00,19.0,17.0,-100.00,East,87,16.0,29.0,92,0.00,,,-99.99,0.700000,,2013-02-26 08:31:00,
2013-02-25 23:41:00,19.0,17.0,-100.00,East,87,16.0,29.0,92,0.00,,,-99.99,0.700000,,2013-02-26 08:41:00,
2013-02-25 23:43:00,20.0,18.0,-100.00,East,91,17.0,23.0,92,0.00,,,0.00,0.700000,,2013-02-26 08:43:00,